Preview of NWS' New Version of Forecast
This preview is not operational and should not be used for support decisions.

Regional Weather Roundup (RWR)

Issued by National Weather Service (NWS)

                            
000
ASUS45 KBOI 220310
RWRID 

IDAHO REGIONAL WEATHER ROUNDUP
NATIONAL WEATHER SERVICE BOISE ID
800 PM MST THU FEB 21 2019

NOTE: "FAIR" INDICATES FEW OR NO CLOUDS BELOW 12000 FEET
WITH NO SIGNIFICANT WEATHER AND/OR OBSTRUCTIONS TO VISIBILITY

IDZ012-014-220400-
SOUTHWEST IDAHO

  
CITY           SKY/WX    TMP DP  RH WIND       PRES   REMARKS
BOISE          CLEAR     26  19  74 NW5       29.91R WCI  20          
CALDWELL       CLEAR     28  22  78 NW5       29.95R WCI  23          
MOUNTAIN HOME  CLEAR     26  26 100 W8        29.91R WCI  17          
$$

IDZ016-017-220400-
SOUTHCENTRAL IDAHO

  
CITY           SKY/WX    TMP DP  RH WIND       PRES   REMARKS
BURLEY         CLEAR     16   9  74 NW5       29.85R WCI   9          
JEROME         PTCLDY    17  14  88 W6        29.88R WCI   9          
TWIN FALLS     CLEAR     14  11  87 W7        29.87R WCI   4          
$$

IDZ019>023-220400-
SOUTHEAST IDAHO

  
CITY           SKY/WX    TMP DP  RH WIND       PRES   REMARKS
IDAHO FALLS    CLEAR     10   2  69 N12       29.83R WCI  -5          
POCATELLO      CLEAR     15   6  67 E5        29.83R WCI   8          
REXBURG        CLEAR      9   2  73 NE5       29.82R WCI   1          
$$

IDZ006-010-011-018-031-032-220400-
CENTRAL IDAHO MOUNTAINS

  
CITY           SKY/WX    TMP DP  RH WIND       PRES   REMARKS
MCCALL         CLEAR     16  11  80 N6        29.81S WCI   7          
HAILEY         CLEAR     10   7  85 W9        29.82R WCI  -2          
STANLEY          N/A      2  -2  83 CALM      29.78R                  
SALMON         CLEAR     16   6  65 SE3       29.94R                  
CHALLIS        CLEAR     16   2  54 VRB3      29.85R                  
$$

IDZ002-004-006-007-026-220400-
NORTHERN IDAHO

  
CITY           SKY/WX    TMP DP  RH WIND       PRES   REMARKS
LEWISTON       CLEAR     22  16  78 S7        30.12R WCI  13          
LOWELL           N/A     31  27  85 CALM      30.07R                  
COEUR D'ALENE  CLEAR     13   7  77 CALM      30.03R                  
MULLAN PASS    CLEAR     10   5  80 SE5       29.83R WCI   2          
$$